Time,TemperatureF,DewpointF,PressureIn,WindDirection,WindDirectionDegrees,WindSpeedMPH,WindSpeedGustMPH,Humidity,HourlyPrecipIn,Conditions,Clouds,dailyrainin,SoftwareType,DateUTC
2013-03-10 00:00:00,54.5,52.6,29.59,SE,135,0.0,4.3,93,0.00,,,0.00,WUHU216HW,2013-03-10 06:00:00,
2013-03-10 00:05:00,54.2,52.2,29.60,SSE,158,2.4,4.3,93,0.00,,,0.00,WUHU216HW,2013-03-10 06:05:00,
2013-03-10 00:10:00,54.4,52.4,29.61,South,180,0.0,4.8,93,0.00,,,0.00,WUHU216HW,2013-03-10 06:10:00,
2013-03-10 00:15:00,54.4,52.4,29.61,WSW,248,0.0,4.8,93,0.00,,,0.00,WUHU216HW,2013-03-10 06:15:00,
2013-03-10 00:20:00,54.0,52.0,29.62,SW,225,2.2,3.7,93,0.00,,,0.00,WUHU216HW,2013-03-10 06:20:00,
2013-03-10 00:25:00,53.8,52.1,29.61,SSW,203,0.4,3.7,94,0.00,,,0.00,WUHU216HW,2013-03-10 06:25:00,
2013-03-10 00:30:00,53.8,51.9,29.61,SSE,158,0.0,3.0,93,0.00,,,0.00,WUHU216HW,2013-03-10 06:30:00,
2013-03-10 00:35:00,53.6,51.9,29.60,SE,135,0.0,0.5,94,0.00,,,0.00,WUHU216HW,2013-03-10 06:35:00,
2013-03-10 00:40:00,53.3,51.6,29.59,East,90,0.0,0.0,94,0.00,,,0.00,WUHU216HW,2013-03-10 06:40:00,
2013-03-10 00:45:00,52.9,51.2,29.60,East,90,0.0,0.0,94,0.00,,,0.00,WUHU216HW,2013-03-10 06:45:00,
2013-03-10 00:50:00,52.9,51.2,29.60,East,90,0.0,0.0,94,0.00,,,0.00,WUHU216HW,2013-03-10 06:50:00,
2013-03-10 00:55:00,52.9,51.2,29.59,NNE,23,0.0,0.0,94,0.00,,,0.00,WUHU216HW,2013-03-10 06:55:00,
2013-03-10 01:00:00,52.7,50.8,29.59,NNE,23,0.0,0.0,93,0.00,,,0.00,WUHU216HW,2013-03-10 07:00:00,
2013-03-10 01:05:00,52.6,50.6,29.60,NNE,23,0.0,0.0,93,0.00,,,0.00,WUHU216HW,2013-03-10 07:05:00,
2013-03-10 01:10:00,52.6,50.6,29.61,NNE,23,0.0,0.0,93,0.00,,,0.00,WUHU216HW,2013-03-10 07:10:00,
2013-03-10 01:15:00,52.4,50.4,29.61,NNE,23,0.0,0.0,93,0.00,,,0.00,WUHU216HW,2013-03-10 07:15:00,
2013-03-10 01:20:00,52.4,50.4,29.61,NNE,23,0.0,0.0,93,0.00,,,0.00,WUHU216HW,2013-03-10 07:20:00,
2013-03-10 01:25:00,51.8,49.9,29.60,ESE,113,0.0,0.0,93,0.00,,,0.00,WUHU216HW,2013-03-10 07:25:00,
2013-03-10 01:30:00,51.3,49.3,29.60,ESE,113,0.0,0.0,93,0.00,,,0.00,WUHU216HW,2013-03-10 07:30:00,
2013-03-10 01:35:00,50.9,49.2,29.60,ESE,113,0.0,0.0,94,0.00,,,0.00,WUHU216HW,2013-03-10 07:35:00,
2013-03-10 01:40:00,50.8,49.1,29.60,SE,135,0.0,0.0,94,0.00,,,0.00,WUHU216HW,2013-03-10 07:40:00,
2013-03-10 01:45:00,50.9,49.2,29.60,SE,135,0.0,0.0,94,0.00,,,0.00,WUHU216HW,2013-03-10 07:45:00,
2013-03-10 01:50:00,51.1,49.4,29.60,SSE,158,0.0,0.0,94,0.00,,,0.00,WUHU216HW,2013-03-10 07:50:00,
2013-03-10 01:55:00,51.3,49.6,29.60,SE,135,0.0,0.0,94,0.00,,,0.00,WUHU216HW,2013-03-10 07:55:00,
2013-03-10 03:00:00,51.5,49.8,29.60,SSE,158,1.2,2.6,94,0.00,,,0.00,WUHU216HW,2013-03-10 08:00:00,
2013-03-10 03:05:00,51.7,49.7,29.61,SSE,158,1.2,2.6,93,0.00,,,0.00,WUHU216HW,2013-03-10 08:05:00,
2013-03-10 03:10:00,51.8,49.9,29.60,SE,135,2.2,6.1,93,0.00,,,0.00,WUHU216HW,2013-03-10 08:10:00,
2013-03-10 03:15:00,52.2,50.2,29.59,South,180,3.2,9.1,93,0.00,,,0.00,WUHU216HW,2013-03-10 08:15:00,
2013-03-10 03:20:00,52.2,50.2,29.59,SSE,158,3.7,9.1,93,0.00,,,0.00,WUHU216HW,2013-03-10 08:20:00,
2013-03-10 03:25:00,52.2,50.2,29.59,SSE,158,4.4,6.5,93,0.00,,,0.00,WUHU216HW,2013-03-10 08:25:00,
2013-03-10 03:30:00,52.6,50.6,29.59,SSE,158,2.4,6.5,93,0.00,,,0.00,WUHU216HW,2013-03-10 08:30:00,
2013-03-10 03:35:00,52.7,50.8,29.59,SE,135,5.4,7.6,93,0.00,,,0.00,WUHU216HW,2013-03-10 08:35:00,
2013-03-10 03:40:00,52.9,51.2,29.60,SE,135,5.9,10.4,94,0.00,,,0.00,WUHU216HW,2013-03-10 08:40:00,
2013-03-10 03:45:00,53.1,51.4,29.60,SSW,203,3.7,14.3,94,0.00,,,0.00,WUHU216HW,2013-03-10 08:45:00,
2013-03-10 03:50:00,53.3,51.6,29.59,SSW,203,3.0,14.3,94,0.00,,,0.00,WUHU216HW,2013-03-10 08:50:00,
2013-03-10 03:55:00,53.1,51.4,29.59,South,180,3.7,11.0,94,0.00,,,0.00,WUHU216HW,2013-03-10 08:55:00,
2013-03-10 04:00:00,53.3,51.6,29.58,South,180,10.1,13.7,94,0.00,,,0.00,WUHU216HW,2013-03-10 09:00:00,
2013-03-10 04:05:00,53.3,51.6,29.58,South,180,4.4,13.7,94,0.00,,,0.00,WUHU216HW,2013-03-10 09:05:00,
2013-03-10 04:10:00,53.3,51.6,29.60,SSW,203,3.7,9.1,94,0.00,,,0.00,WUHU216HW,2013-03-10 09:10:00,
2013-03-10 04:15:00,53.3,51.6,29.59,South,180,7.9,9.1,94,0.00,,,0.00,WUHU216HW,2013-03-10 09:15:00,
2013-03-10 04:20:00,53.1,51.4,29.58,SSE,158,11.1,12.1,94,0.00,,,0.00,WUHU216HW,2013-03-10 09:20:00,
2013-03-10 04:25:00,53.1,51.4,29.57,South,180,4.7,12.1,94,0.00,,,0.00,WUHU216HW,2013-03-10 09:25:00,
2013-03-10 04:30:00,52.9,51.2,29.56,South,180,7.2,12.1,94,0.00,,,0.00,WUHU216HW,2013-03-10 09:30:00,
2013-03-10 04:35:00,52.9,51.2,29.55,SSE,158,2.4,10.0,94,0.00,,,0.00,WUHU216HW,2013-03-10 09:35:00,
2013-03-10 04:40:00,52.7,51.0,29.54,South,180,2.4,10.0,94,0.00,,,0.00,WUHU216HW,2013-03-10 09:40:00,
2013-03-10 04:45:00,52.7,50.8,29.55,South,180,3.7,5.4,93,0.00,,,0.00,WUHU216HW,2013-03-10 09:45:00,
2013-03-10 04:50:00,52.6,50.6,29.55,SSW,203,4.4,5.4,93,0.00,,,0.00,WUHU216HW,2013-03-10 09:50:00,
2013-03-10 04:55:00,52.6,50.6,29.56,SSE,158,4.2,7.6,93,0.00,,,0.00,WUHU216HW,2013-03-10 09:55:00,
2013-03-10 05:00:00,52.6,50.6,29.55,South,180,3.0,7.6,93,0.00,,,0.00,WUHU216HW,2013-03-10 10:00:00,
2013-03-10 05:05:00,52.4,50.4,29.56,SSE,158,3.7,4.6,93,0.00,,,0.00,WUHU216HW,2013-03-10 10:05:00,
2013-03-10 05:10:00,52.4,50.4,29.59,SSW,203,3.0,7.8,93,0.00,,,0.00,WUHU216HW,2013-03-10 10:10:00,
2013-03-10 05:15:00,52.6,50.6,29.59,South,180,4.4,7.8,93,0.00,,,0.00,WUHU216HW,2013-03-10 10:15:00,
2013-03-10 05:20:00,52.6,50.6,29.62,SW,225,7.2,8.3,93,0.00,,,0.00,WUHU216HW,2013-03-10 10:20:00,
2013-03-10 05:25:00,52.6,50.6,29.62,SSW,203,6.9,8.3,93,0.00,,,0.00,WUHU216HW,2013-03-10 10:25:00,
2013-03-10 05:30:00,52.6,50.6,29.62,SSE,158,5.2,9.1,93,0.00,,,0.00,WUHU216HW,2013-03-10 10:30:00,
2013-03-10 05:35:00,52.6,50.6,29.61,SSW,203,2.4,9.1,93,0.00,,,0.00,WUHU216HW,2013-03-10 10:35:00,
2013-03-10 05:40:00,52.4,50.4,29.61,SSW,203,0.0,9.1,93,0.00,,,0.00,WUHU216HW,2013-03-10 10:40:00,
2013-03-10 05:45:00,52.4,50.4,29.61,SW,225,4.9,7.8,93,0.00,,,0.00,WUHU216HW,2013-03-10 10:45:00,
2013-03-10 05:50:00,52.4,50.4,29.61,South,180,2.4,7.8,93,0.00,,,0.00,WUHU216HW,2013-03-10 10:50:00,
2013-03-10 05:55:00,52.4,50.4,29.61,SW,225,3.0,6.5,93,0.00,,,0.00,WUHU216HW,2013-03-10 10:55:00,
2013-03-10 06:00:00,52.6,50.6,29.62,SW,225,2.8,5.6,93,0.00,,,0.00,WUHU216HW,2013-03-10 11:00:00,
2013-03-10 06:05:00,52.6,50.6,29.61,WSW,248,0.0,4.8,93,0.00,,,0.00,WUHU216HW,2013-03-10 11:05:00,
2013-03-10 06:10:00,52.6,50.6,29.62,SW,225,0.0,4.6,93,0.00,,,0.00,WUHU216HW,2013-03-10 11:10:00,
2013-03-10 06:15:00,52.4,50.4,29.62,SSE,158,2.0,4.8,93,0.00,,,0.00,WUHU216HW,2013-03-10 11:15:00,
2013-03-10 06:20:00,52.4,50.4,29.62,SW,225,0.0,6.7,93,0.00,,,0.00,WUHU216HW,2013-03-10 11:20:00,
2013-03-10 06:25:00,52.4,50.4,29.61,SE,135,0.4,6.7,93,0.00,,,0.00,WUHU216HW,2013-03-10 11:25:00,
2013-03-10 06:30:00,52.2,50.2,29.61,SE,135,0.0,4.1,93,0.00,,,0.00,WUHU216HW,2013-03-10 11:30:00,
2013-03-10 06:35:00,52.0,50.1,29.61,SW,225,2.0,3.5,93,0.00,,,0.00,WUHU216HW,2013-03-10 11:35:00,
2013-03-10 06:40:00,52.0,50.1,29.60,South,180,0.0,3.5,93,0.00,,,0.00,WUHU216HW,2013-03-10 11:40:00,
2013-03-10 06:45:00,52.2,50.2,29.60,South,180,2.8,3.2,93,0.00,,,0.00,WUHU216HW,2013-03-10 11:45:00,
2013-03-10 06:50:00,52.0,50.1,29.59,WSW,248,2.0,3.0,93,0.00,,,0.00,WUHU216HW,2013-03-10 11:50:00,
2013-03-10 06:55:00,52.2,50.2,29.62,SSW,203,5.4,5.9,93,0.00,,,0.00,WUHU216HW,2013-03-10 11:55:00,
2013-03-10 07:00:00,52.2,50.2,29.61,SSE,158,2.2,6.7,93,0.00,,,0.00,WUHU216HW,2013-03-10 12:00:00,
2013-03-10 07:05:00,52.2,50.2,29.61,SSW,203,5.2,6.7,93,0.00,,,0.00,WUHU216HW,2013-03-10 12:05:00,
2013-03-10 07:10:00,52.2,50.2,29.63,SSW,203,5.4,5.9,93,0.00,,,0.00,WUHU216HW,2013-03-10 12:10:00,
2013-03-10 07:15:00,52.2,50.2,29.64,SSW,203,7.6,8.3,93,0.00,,,0.00,WUHU216HW,2013-03-10 12:15:00,
2013-03-10 07:20:00,52.2,49.9,29.64,SSW,203,4.7,8.3,92,0.00,,,0.00,WUHU216HW,2013-03-10 12:20:00,
2013-03-10 07:25:00,52.4,50.0,29.65,SSW,203,3.7,9.7,92,0.00,,,0.00,WUHU216HW,2013-03-10 12:25:00,
2013-03-10 07:30:00,52.6,50.2,29.65,South,180,5.2,9.7,92,0.00,,,0.00,WUHU216HW,2013-03-10 12:30:00,
2013-03-10 07:35:00,52.6,50.2,29.64,South,180,4.0,11.8,92,0.00,,,0.00,WUHU216HW,2013-03-10 12:35:00,
2013-03-10 07:40:00,52.6,50.6,29.64,SSW,203,8.6,11.8,93,0.00,,,0.00,WUHU216HW,2013-03-10 12:40:00,
2013-03-10 07:45:00,52.6,50.2,29.64,SW,225,4.4,9.4,92,0.00,,,0.00,WUHU216HW,2013-03-10 12:45:00,
2013-03-10 07:50:00,52.4,50.0,29.62,SSE,158,0.2,9.4,92,0.00,,,0.00,WUHU216HW,2013-03-10 12:50:00,
2013-03-10 07:55:00,52.2,49.9,29.63,SE,135,1.8,4.8,92,0.00,,,0.00,WUHU216HW,2013-03-10 12:55:00,
2013-03-10 08:00:00,52.0,49.7,29.62,South,180,2.0,5.4,92,0.00,,,0.00,WUHU216HW,2013-03-10 13:00:00,
2013-03-10 08:05:00,52.0,49.7,29.63,SSE,158,4.2,6.5,92,0.00,,,0.00,WUHU216HW,2013-03-10 13:05:00,
2013-03-10 08:10:00,52.2,49.9,29.63,SE,135,2.0,6.5,92,0.00,,,0.00,WUHU216HW,2013-03-10 13:10:00,
2013-03-10 08:15:00,52.0,49.7,29.62,SE,135,0.0,6.1,92,0.00,,,0.00,WUHU216HW,2013-03-10 13:15:00,
2013-03-10 08:20:00,52.0,49.7,29.62,SSE,158,2.4,5.4,92,0.00,,,0.00,WUHU216HW,2013-03-10 13:20:00,
2013-03-10 08:25:00,52.2,49.9,29.63,SSW,203,0.0,3.5,92,0.00,,,0.00,WUHU216HW,2013-03-10 13:25:00,
2013-03-10 08:30:00,52.2,49.9,29.64,WNW,293,0.0,3.0,92,0.00,,,0.00,WUHU216HW,2013-03-10 13:30:00,
2013-03-10 08:35:00,52.2,49.9,29.64,WNW,293,0.0,0.8,92,0.00,,,0.00,WUHU216HW,2013-03-10 13:35:00,
2013-03-10 08:40:00,52.2,49.9,29.63,North,0,0.0,0.0,92,0.00,,,0.00,WUHU216HW,2013-03-10 13:40:00,
2013-03-10 08:45:00,51.3,48.2,29.62,NNW,338,5.4,8.9,89,0.00,,,0.00,WUHU216HW,2013-03-10 13:45:00,
2013-03-10 08:50:00,48.2,44.6,29.62,North,0,3.7,10.2,87,0.00,,,0.00,WUHU216HW,2013-03-10 13:50:00,
2013-03-10 08:55:00,46.6,43.7,29.62,NNW,338,4.0,10.2,89,0.00,,,0.00,WUHU216HW,2013-03-10 13:55:00,
2013-03-10 09:00:00,45.7,43.0,29.63,North,0,3.0,9.1,90,0.00,,,0.00,WUHU216HW,2013-03-10 14:00:00,
2013-03-10 09:05:00,44.8,42.4,29.64,North,0,4.4,7.8,91,0.00,,,0.00,WUHU216HW,2013-03-10 14:05:00,
2013-03-10 09:10:00,44.5,42.0,29.64,WNW,293,2.8,7.8,91,0.00,,,0.00,WUHU216HW,2013-03-10 14:10:00,
2013-03-10 09:15:00,44.3,41.9,29.65,NNW,338,1.2,7.6,91,0.00,,,0.00,WUHU216HW,2013-03-10 14:15:00,
2013-03-10 09:20:00,44.1,41.7,29.65,North,0,0.0,5.6,91,0.01,,,0.01,WUHU216HW,2013-03-10 14:20:00,
2013-03-10 09:25:00,43.9,41.8,29.65,WNW,293,0.0,3.5,92,0.01,,,0.01,WUHU216HW,2013-03-10 14:25:00,
2013-03-10 09:30:00,43.9,41.8,29.66,North,0,0.0,3.2,92,0.01,,,0.01,WUHU216HW,2013-03-10 14:30:00,
2013-03-10 09:35:00,43.7,41.6,29.67,NW,315,1.4,3.5,92,0.06,,,0.06,WUHU216HW,2013-03-10 14:35:00,
2013-03-10 09:40:00,43.7,41.6,29.67,SE,135,0.8,3.5,92,0.08,,,0.08,WUHU216HW,2013-03-10 14:40:00,
2013-03-10 09:45:00,43.6,41.7,29.67,NNW,338,3.4,6.5,93,0.12,,,0.12,WUHU216HW,2013-03-10 14:45:00,
2013-03-10 09:50:00,43.6,41.7,29.67,North,0,2.0,6.5,93,0.13,,,0.13,WUHU216HW,2013-03-10 14:50:00,
2013-03-10 09:55:00,43.4,41.5,29.65,North,0,1.2,4.1,93,0.15,,,0.15,WUHU216HW,2013-03-10 14:55:00,
2013-03-10 10:00:00,43.4,41.5,29.65,NNW,338,1.2,3.7,93,0.18,,,0.18,WUHU216HW,2013-03-10 15:00:00,
2013-03-10 10:05:00,43.6,41.7,29.65,NNW,338,2.0,4.8,93,0.19,,,0.19,WUHU216HW,2013-03-10 15:05:00,
2013-03-10 10:10:00,43.6,41.7,29.64,North,0,3.7,5.2,93,0.19,,,0.19,WUHU216HW,2013-03-10 15:10:00,
2013-03-10 10:15:00,43.4,41.5,29.64,North,0,2.8,7.2,93,0.19,,,0.19,WUHU216HW,2013-03-10 15:15:00,
2013-03-10 10:20:00,43.4,41.5,29.64,NNW,338,4.4,7.6,93,0.18,,,0.19,WUHU216HW,2013-03-10 15:20:00,
2013-03-10 10:25:00,43.6,41.7,29.65,NNW,338,1.0,7.6,93,0.18,,,0.19,WUHU216HW,2013-03-10 15:25:00,
2013-03-10 10:30:00,43.4,41.5,29.65,North,0,1.2,6.5,93,0.15,,,0.19,WUHU216HW,2013-03-10 15:30:00,
2013-03-10 10:35:00,43.4,41.5,29.66,SE,135,0.0,5.6,93,0.13,,,0.19,WUHU216HW,2013-03-10 15:35:00,
2013-03-10 10:40:00,43.4,41.5,29.65,North,0,1.4,4.8,93,0.07,,,0.19,WUHU216HW,2013-03-10 15:40:00,
2013-03-10 10:45:00,43.2,41.3,29.66,NW,315,2.0,4.8,93,0.07,,,0.19,WUHU216HW,2013-03-10 15:45:00,
2013-03-10 10:50:00,43.2,41.6,29.67,NW,315,5.4,5.9,94,0.04,,,0.19,WUHU216HW,2013-03-10 15:50:00,
2013-03-10 10:55:00,42.8,41.2,29.66,North,0,0.8,5.9,94,0.03,,,0.19,WUHU216HW,2013-03-10 15:55:00,
2013-03-10 11:00:00,42.5,40.6,29.65,NNE,23,4.2,5.9,93,0.01,,,0.19,WUHU216HW,2013-03-10 16:00:00,
2013-03-10 11:05:00,41.8,39.9,29.65,North,0,3.7,8.9,93,0.00,,,0.19,WUHU216HW,2013-03-10 16:05:00,
2013-03-10 11:10:00,41.6,39.7,29.65,NNW,338,6.6,11.3,93,0.00,,,0.19,WUHU216HW,2013-03-10 16:10:00,
2013-03-10 11:15:00,41.4,39.8,29.65,North,0,5.2,11.3,94,0.00,,,0.19,WUHU216HW,2013-03-10 16:15:00,
2013-03-10 11:20:00,41.4,39.8,29.65,North,0,3.7,7.0,94,0.00,,,0.19,WUHU216HW,2013-03-10 16:20:00,
2013-03-10 11:25:00,41.2,39.6,29.66,NW,315,4.4,10.2,94,0.00,,,0.19,WUHU216HW,2013-03-10 16:25:00,
2013-03-10 11:30:00,40.9,39.2,29.67,North,0,4.4,10.2,94,0.00,,,0.19,WUHU216HW,2013-03-10 16:30:00,
2013-03-10 11:35:00,41.0,39.4,29.67,NW,315,3.7,7.6,94,0.00,,,0.19,WUHU216HW,2013-03-10 16:35:00,
2013-03-10 11:40:00,40.7,39.1,29.67,NNW,338,2.8,6.5,94,0.00,,,0.19,WUHU216HW,2013-03-10 16:40:00,
2013-03-10 11:45:00,40.3,38.7,29.68,NNW,338,4.7,9.4,94,0.00,,,0.19,WUHU216HW,2013-03-10 16:45:00,
2013-03-10 11:50:00,40.1,38.3,29.68,ENE,68,3.4,9.4,93,0.00,,,0.19,WUHU216HW,2013-03-10 16:50:00,
2013-03-10 11:55:00,40.0,38.1,29.67,NNW,338,4.2,6.5,93,0.00,,,0.19,WUHU216HW,2013-03-10 16:55:00,
2013-03-10 12:00:00,40.0,38.1,29.66,North,0,3.2,5.6,93,0.00,,,0.19,WUHU216HW,2013-03-10 17:00:00,
2013-03-10 12:05:00,40.1,38.3,29.67,NW,315,4.7,5.6,93,0.00,,,0.19,WUHU216HW,2013-03-10 17:05:00,
2013-03-10 12:10:00,40.0,38.1,29.67,NNW,338,4.9,7.6,93,0.00,,,0.19,WUHU216HW,2013-03-10 17:10:00,
2013-03-10 12:15:00,39.8,37.9,29.67,North,0,3.4,7.6,93,0.00,,,0.19,WUHU216HW,2013-03-10 17:15:00,
2013-03-10 12:20:00,39.6,37.7,29.67,NNW,338,3.4,9.7,93,0.00,,,0.19,WUHU216HW,2013-03-10 17:20:00,
2013-03-10 12:25:00,39.6,37.7,29.67,NNW,338,5.2,9.7,93,0.00,,,0.19,WUHU216HW,2013-03-10 17:25:00,
2013-03-10 12:30:00,39.8,37.9,29.66,NW,315,9.4,10.2,93,0.00,,,0.19,WUHU216HW,2013-03-10 17:30:00,
2013-03-10 12:35:00,39.8,37.9,29.66,NNW,338,4.0,10.2,93,0.00,,,0.19,WUHU216HW,2013-03-10 17:35:00,
2013-03-10 12:40:00,39.8,37.9,29.66,NW,315,3.4,10.2,93,0.00,,,0.19,WUHU216HW,2013-03-10 17:40:00,
2013-03-10 12:45:00,39.6,37.7,29.67,NW,315,7.6,11.8,93,0.00,,,0.19,WUHU216HW,2013-03-10 17:45:00,
2013-03-10 12:50:00,39.2,37.4,29.67,NNW,338,8.4,11.8,93,0.00,,,0.19,WUHU216HW,2013-03-10 17:50:00,
2013-03-10 12:55:00,39.2,37.4,29.67,NW,315,4.0,11.5,93,0.00,,,0.19,WUHU216HW,2013-03-10 17:55:00,
2013-03-10 13:00:00,39.2,37.4,29.67,NNW,338,2.8,11.5,93,0.00,,,0.19,WUHU216HW,2013-03-10 18:00:00,
2013-03-10 13:05:00,39.2,37.4,29.67,NW,315,7.6,9.1,93,0.00,,,0.19,WUHU216HW,2013-03-10 18:05:00,
2013-03-10 13:10:00,39.1,37.2,29.68,WNW,293,5.9,9.1,93,0.00,,,0.19,WUHU216HW,2013-03-10 18:10:00,
2013-03-10 13:15:00,38.9,37.0,29.68,WNW,293,0.0,8.6,93,0.00,,,0.19,WUHU216HW,2013-03-10 18:15:00,
2013-03-10 13:20:00,38.7,36.8,29.68,SW,225,2.2,9.1,93,0.00,,,0.19,WUHU216HW,2013-03-10 18:20:00,
2013-03-10 13:25:00,38.7,36.8,29.68,North,0,4.2,9.1,93,0.00,,,0.19,WUHU216HW,2013-03-10 18:25:00,
2013-03-10 13:30:00,38.7,36.8,29.67,NW,315,4.4,11.5,93,0.00,,,0.19,WUHU216HW,2013-03-10 18:30:00,
2013-03-10 13:35:00,38.7,36.8,29.67,NNW,338,4.9,11.5,93,0.00,,,0.19,WUHU216HW,2013-03-10 18:35:00,
2013-03-10 13:40:00,38.7,36.8,29.67,NNW,338,4.2,10.0,93,0.00,,,0.19,WUHU216HW,2013-03-10 18:40:00,
2013-03-10 13:45:00,38.5,36.6,29.67,North,0,0.2,10.0,93,0.00,,,0.19,WUHU216HW,2013-03-10 18:45:00,
2013-03-10 13:50:00,38.7,36.8,29.67,NNW,338,2.2,9.1,93,0.00,,,0.19,WUHU216HW,2013-03-10 18:50:00,
2013-03-10 13:55:00,38.9,37.0,29.67,NW,315,3.0,9.1,93,0.00,,,0.19,WUHU216HW,2013-03-10 18:55:00,
2013-03-10 14:00:00,38.9,36.7,29.67,North,0,4.4,10.2,92,0.00,,,0.19,WUHU216HW,2013-03-10 19:00:00,
2013-03-10 14:05:00,38.7,36.5,29.67,North,0,3.4,10.2,92,0.00,,,0.19,WUHU216HW,2013-03-10 19:05:00,
2013-03-10 14:10:00,38.9,36.7,29.67,North,0,2.0,8.3,92,0.00,,,0.19,WUHU216HW,2013-03-10 19:10:00,
2013-03-10 14:15:00,38.9,36.7,29.67,North,0,4.9,9.4,92,0.00,,,0.19,WUHU216HW,2013-03-10 19:15:00,
2013-03-10 14:20:00,38.7,36.5,29.67,NNW,338,6.2,9.4,92,0.00,,,0.19,WUHU216HW,2013-03-10 19:20:00,
2013-03-10 14:25:00,38.5,36.4,29.67,NW,315,4.4,10.2,92,0.00,,,0.19,WUHU216HW,2013-03-10 19:25:00,
2013-03-10 14:30:00,38.5,36.4,29.68,North,0,2.2,10.2,92,0.00,,,0.19,WUHU216HW,2013-03-10 19:30:00,
2013-03-10 14:35:00,38.5,36.4,29.67,NNW,338,6.6,8.6,92,0.00,,,0.19,WUHU216HW,2013-03-10 19:35:00,
2013-03-10 14:40:00,38.5,36.4,29.68,North,0,9.1,10.0,92,0.00,,,0.19,WUHU216HW,2013-03-10 19:40:00,
2013-03-10 14:45:00,38.5,36.4,29.67,NNW,338,5.9,10.0,92,0.00,,,0.19,WUHU216HW,2013-03-10 19:45:00,
2013-03-10 14:50:00,38.3,36.2,29.67,WNW,293,9.4,11.8,92,0.00,,,0.19,WUHU216HW,2013-03-10 19:50:00,
2013-03-10 14:55:00,38.2,35.7,29.68,NNW,338,10.3,12.1,91,0.00,,,0.19,WUHU216HW,2013-03-10 19:55:00,
2013-03-10 15:00:00,38.3,35.9,29.68,NNW,338,7.6,12.1,91,0.00,,,0.19,WUHU216HW,2013-03-10 20:00:00,
2013-03-10 15:05:00,38.3,35.9,29.68,NW,315,2.8,11.0,91,0.00,,,0.19,WUHU216HW,2013-03-10 20:05:00,
2013-03-10 15:10:00,38.3,35.9,29.69,NNE,23,3.4,10.4,91,0.00,,,0.19,WUHU216HW,2013-03-10 20:10:00,
2013-03-10 15:15:00,38.2,35.7,29.69,North,0,2.4,10.4,91,0.00,,,0.19,WUHU216HW,2013-03-10 20:15:00,
2013-03-10 15:20:00,38.2,35.7,29.69,WNW,293,8.4,9.1,91,0.00,,,0.19,WUHU216HW,2013-03-10 20:20:00,
2013-03-10 15:25:00,38.0,35.6,29.69,WNW,293,4.2,10.2,91,0.00,,,0.19,WUHU216HW,2013-03-10 20:25:00,
2013-03-10 15:30:00,38.0,35.6,29.70,North,0,2.2,10.2,91,0.00,,,0.19,WUHU216HW,2013-03-10 20:30:00,
2013-03-10 15:35:00,37.8,35.4,29.70,NW,315,6.9,9.7,91,0.00,,,0.19,WUHU216HW,2013-03-10 20:35:00,
2013-03-10 15:40:00,37.4,35.0,29.70,NNW,338,5.2,14.8,91,0.00,,,0.19,WUHU216HW,2013-03-10 20:40:00,
2013-03-10 15:45:00,37.1,34.7,29.71,NW,315,4.4,14.8,91,0.00,,,0.19,WUHU216HW,2013-03-10 20:45:00,
2013-03-10 15:50:00,36.5,33.8,29.71,NW,315,5.6,9.4,90,0.00,,,0.19,WUHU216HW,2013-03-10 20:50:00,
2013-03-10 15:55:00,36.4,33.9,29.71,NW,315,2.8,9.4,91,0.00,,,0.19,WUHU216HW,2013-03-10 20:55:00,
2013-03-10 16:00:00,36.0,33.3,29.72,NW,315,7.6,10.4,90,0.00,,,0.19,WUHU216HW,2013-03-10 21:00:00,
2013-03-10 16:05:00,35.6,32.9,29.72,NNW,338,3.0,13.2,90,0.00,,,0.19,WUHU216HW,2013-03-10 21:05:00,
2013-03-10 16:10:00,35.6,33.2,29.72,NNW,338,3.2,13.2,91,0.00,,,0.19,WUHU216HW,2013-03-10 21:10:00,
2013-03-10 16:15:00,35.6,33.2,29.73,WNW,293,4.2,8.3,91,0.00,,,0.19,WUHU216HW,2013-03-10 21:15:00,
2013-03-10 16:20:00,35.5,33.0,29.73,NW,315,10.8,13.7,91,0.00,,,0.19,WUHU216HW,2013-03-10 21:20:00,
2013-03-10 16:25:00,35.1,32.7,29.73,WNW,293,3.0,13.7,91,0.00,,,0.19,WUHU216HW,2013-03-10 21:25:00,
2013-03-10 16:30:00,34.9,32.8,29.74,NW,315,7.2,11.8,92,0.00,,,0.19,WUHU216HW,2013-03-10 21:30:00,
2013-03-10 16:35:00,34.7,32.3,29.74,NNW,338,5.6,12.8,91,0.00,,,0.19,WUHU216HW,2013-03-10 21:35:00,
2013-03-10 16:40:00,34.6,32.4,29.74,West,270,3.7,12.8,92,0.00,,,0.19,WUHU216HW,2013-03-10 21:40:00,
2013-03-10 16:45:00,34.4,32.0,29.74,NW,315,6.6,12.8,91,0.00,,,0.19,WUHU216HW,2013-03-10 21:45:00,
2013-03-10 16:50:00,34.2,31.8,29.74,SSW,203,7.4,12.8,91,0.00,,,0.19,WUHU216HW,2013-03-10 21:50:00,
2013-03-10 16:55:00,34.0,31.6,29.75,NNW,338,6.6,14.5,91,0.00,,,0.19,WUHU216HW,2013-03-10 21:55:00,
2013-03-10 17:00:00,34.0,31.6,29.75,NW,315,4.4,14.5,91,0.00,,,0.19,WUHU216HW,2013-03-10 22:00:00,
2013-03-10 17:05:00,33.7,31.2,29.76,North,0,12.5,13.7,91,0.00,,,0.19,WUHU216HW,2013-03-10 22:05:00,
2013-03-10 17:10:00,33.5,31.1,29.76,NW,315,2.8,13.7,91,0.00,,,0.19,WUHU216HW,2013-03-10 22:10:00,
2013-03-10 17:15:00,33.3,31.0,29.75,North,0,6.2,13.7,91,0.00,,,0.19,WUHU216HW,2013-03-10 22:15:00,
2013-03-10 17:20:00,33.3,31.0,29.76,NNW,338,4.0,7.8,91,0.00,,,0.19,WUHU216HW,2013-03-10 22:20:00,
2013-03-10 17:25:00,33.1,30.5,29.76,WNW,293,4.4,11.8,90,0.00,,,0.19,WUHU216HW,2013-03-10 22:25:00,
2013-03-10 17:30:00,32.9,30.3,29.76,West,270,3.2,15.6,90,0.00,,,0.19,WUHU216HW,2013-03-10 22:30:00,
2013-03-10 17:35:00,32.8,29.9,29.77,North,0,5.2,15.6,89,0.00,,,0.19,WUHU216HW,2013-03-10 22:35:00,
2013-03-10 17:40:00,32.8,29.9,29.77,NW,315,3.4,14.5,89,0.00,,,0.19,WUHU216HW,2013-03-10 22:40:00,
2013-03-10 17:45:00,32.8,30.2,29.77,NNW,338,3.4,14.5,90,0.00,,,0.19,WUHU216HW,2013-03-10 22:45:00,
2013-03-10 17:50:00,32.8,30.2,29.77,NNW,338,11.8,12.8,90,0.00,,,0.19,WUHU216HW,2013-03-10 22:50:00,
2013-03-10 17:55:00,32.6,29.7,29.78,NNW,338,4.2,12.8,89,0.00,,,0.19,WUHU216HW,2013-03-10 22:55:00,
2013-03-10 18:00:00,32.4,29.5,29.78,NW,315,4.9,12.8,89,0.00,,,0.19,WUHU216HW,2013-03-10 23:00:00,
2013-03-10 18:05:00,32.2,29.4,29.78,NNW,338,4.4,11.0,89,0.00,,,0.19,WUHU216HW,2013-03-10 23:05:00,
2013-03-10 18:10:00,32.2,29.4,29.78,NNW,338,5.9,9.1,89,0.00,,,0.19,WUHU216HW,2013-03-10 23:10:00,
2013-03-10 18:15:00,32.2,29.7,29.78,NNW,338,3.2,10.0,90,0.00,,,0.19,WUHU216HW,2013-03-10 23:15:00,
2013-03-10 18:20:00,32.2,29.7,29.78,NNW,338,2.0,10.0,90,0.00,,,0.19,WUHU216HW,2013-03-10 23:20:00,
2013-03-10 18:25:00,32.2,29.4,29.79,NNW,338,7.6,9.7,89,0.00,,,0.19,WUHU216HW,2013-03-10 23:25:00,
2013-03-10 18:30:00,32.0,29.3,29.79,NNW,338,6.6,11.0,89,0.00,,,0.19,WUHU216HW,2013-03-10 23:30:00,
2013-03-10 18:35:00,32.0,29.3,29.79,NNW,338,4.4,13.9,89,0.00,,,0.19,WUHU216HW,2013-03-10 23:35:00,
2013-03-10 18:40:00,32.0,29.3,29.80,NNW,338,3.7,13.9,89,0.00,,,0.19,WUHU216HW,2013-03-10 23:40:00,
2013-03-10 18:45:00,32.0,29.3,29.80,NNW,338,3.7,11.0,89,0.00,,,0.19,WUHU216HW,2013-03-10 23:45:00,
2013-03-10 18:50:00,32.0,29.3,29.80,NNW,338,6.4,10.4,89,0.00,,,0.19,WUHU216HW,2013-03-10 23:50:00,
2013-03-10 18:55:00,31.9,29.1,29.80,NNW,338,7.4,10.7,89,0.00,,,0.19,WUHU216HW,2013-03-10 23:55:00,
2013-03-10 19:00:00,31.9,29.1,29.80,NNW,338,2.4,10.7,89,0.00,,,0.19,WUHU216HW,2013-03-11 00:00:00,
2013-03-10 19:05:00,31.9,29.1,29.81,NNW,338,12.1,13.2,89,0.00,,,0.19,WUHU216HW,2013-03-11 00:05:00,
2013-03-10 19:10:00,31.9,29.1,29.81,NNW,338,0.4,13.2,89,0.00,,,0.19,WUHU216HW,2013-03-11 00:10:00,
2013-03-10 19:15:00,31.9,28.8,29.81,NNW,338,4.0,13.2,88,0.00,,,0.19,WUHU216HW,2013-03-11 00:15:00,
2013-03-10 19:20:00,31.9,28.8,29.81,NNW,338,4.7,11.0,88,0.00,,,0.19,WUHU216HW,2013-03-11 00:20:00,
2013-03-10 19:25:00,31.9,28.8,29.81,NNW,338,8.4,10.4,88,0.00,,,0.19,WUHU216HW,2013-03-11 00:25:00,
2013-03-10 19:30:00,31.7,28.6,29.81,NNW,338,4.9,10.4,88,0.00,,,0.19,WUHU216HW,2013-03-11 00:30:00,
2013-03-10 19:35:00,31.7,28.6,29.81,NNW,338,3.2,9.1,88,0.00,,,0.19,WUHU216HW,2013-03-11 00:35:00,
2013-03-10 19:40:00,31.7,28.6,29.82,NNW,338,4.4,9.4,88,0.00,,,0.19,WUHU216HW,2013-03-11 00:40:00,
2013-03-10 19:45:00,31.5,28.5,29.82,NNW,338,7.9,12.6,88,0.00,,,0.19,WUHU216HW,2013-03-11 00:45:00,
2013-03-10 19:50:00,31.5,28.5,29.82,NNW,338,3.7,12.6,88,0.00,,,0.19,WUHU216HW,2013-03-11 00:50:00,
2013-03-10 19:55:00,31.5,28.5,29.82,NNW,338,0.4,9.1,88,0.00,,,0.19,WUHU216HW,2013-03-11 00:55:00,
2013-03-10 20:00:00,31.5,28.5,29.82,NNW,338,4.7,7.6,88,0.00,,,0.19,WUHU216HW,2013-03-11 01:00:00,
2013-03-10 20:05:00,31.3,27.9,29.83,NNW,338,2.8,11.3,87,0.00,,,0.19,WUHU216HW,2013-03-11 01:05:00,
2013-03-10 20:10:00,31.3,27.9,29.83,NNW,338,5.6,12.4,87,0.00,,,0.19,WUHU216HW,2013-03-11 01:10:00,
2013-03-10 20:15:00,31.3,27.6,29.83,NNW,338,2.2,12.4,86,0.00,,,0.19,WUHU216HW,2013-03-11 01:15:00,
2013-03-10 20:20:00,31.3,27.6,29.83,NNW,338,4.9,9.4,86,0.00,,,0.19,WUHU216HW,2013-03-11 01:20:00,
2013-03-10 20:25:00,31.3,27.6,29.83,NNW,338,5.4,9.4,86,0.00,,,0.19,WUHU216HW,2013-03-11 01:25:00,
2013-03-10 20:30:00,31.3,27.9,29.84,NNW,338,5.4,9.4,87,0.00,,,0.19,WUHU216HW,2013-03-11 01:30:00,
2013-03-10 20:35:00,31.3,27.9,29.84,NNW,338,5.4,8.9,87,0.00,,,0.19,WUHU216HW,2013-03-11 01:35:00,
2013-03-10 20:40:00,31.3,27.6,29.84,NNW,338,7.2,8.9,86,0.00,,,0.19,WUHU216HW,2013-03-11 01:40:00,
2013-03-10 20:45:00,31.3,27.6,29.84,NNW,338,3.4,9.4,86,0.00,,,0.19,WUHU216HW,2013-03-11 01:45:00,
2013-03-10 20:50:00,31.3,27.6,29.84,NNW,338,6.9,12.4,86,0.00,,,0.19,WUHU216HW,2013-03-11 01:50:00,
2013-03-10 20:55:00,31.1,27.7,29.84,NNW,338,4.2,12.4,87,0.00,,,0.19,WUHU216HW,2013-03-11 01:55:00,
2013-03-10 21:00:00,31.1,27.5,29.84,NNW,338,1.2,8.9,86,0.00,,,0.19,WUHU216HW,2013-03-11 02:00:00,
2013-03-10 21:05:00,31.1,27.7,29.84,NNW,338,5.2,9.1,87,0.00,,,0.19,WUHU216HW,2013-03-11 02:05:00,
2013-03-10 21:10:00,31.0,27.5,29.85,NNW,338,2.0,9.1,87,0.00,,,0.19,WUHU216HW,2013-03-11 02:10:00,
2013-03-10 21:15:00,31.0,27.5,29.85,NNW,338,4.4,8.3,87,0.00,,,0.19,WUHU216HW,2013-03-11 02:15:00,
2013-03-10 21:20:00,31.0,27.3,29.85,NNW,338,3.2,11.0,86,0.00,,,0.19,WUHU216HW,2013-03-11 02:20:00,
2013-03-10 21:25:00,30.8,27.1,29.85,NNW,338,3.7,12.1,86,0.00,,,0.19,WUHU216HW,2013-03-11 02:25:00,
2013-03-10 21:30:00,30.8,27.4,29.85,NNW,338,5.4,12.1,87,0.00,,,0.19,WUHU216HW,2013-03-11 02:30:00,
2013-03-10 21:35:00,30.8,27.1,29.85,NNW,338,4.4,11.8,86,0.00,,,0.19,WUHU216HW,2013-03-11 02:35:00,
2013-03-10 21:40:00,30.8,27.4,29.85,NNW,338,3.4,11.8,87,0.00,,,0.19,WUHU216HW,2013-03-11 02:40:00,
2013-03-10 21:45:00,30.6,27.2,29.85,NNW,338,5.2,8.3,87,0.00,,,0.19,WUHU216HW,2013-03-11 02:45:00,
2013-03-10 21:50:00,30.6,27.6,29.85,NNW,338,6.9,8.3,88,0.00,,,0.19,WUHU216HW,2013-03-11 02:50:00,
2013-03-10 21:55:00,30.4,27.0,29.85,NNW,338,4.4,7.6,87,0.00,,,0.19,WUHU216HW,2013-03-11 02:55:00,
2013-03-10 22:00:00,30.2,26.8,29.86,NNW,338,1.8,7.6,87,0.00,,,0.19,WUHU216HW,2013-03-11 03:00:00,
2013-03-10 22:05:00,30.2,26.8,29.87,NNW,338,7.4,8.0,87,0.00,,,0.19,WUHU216HW,2013-03-11 03:05:00,
2013-03-10 22:10:00,30.1,26.6,29.87,NNW,338,1.2,11.0,87,0.00,,,0.19,WUHU216HW,2013-03-11 03:10:00,
2013-03-10 22:15:00,29.9,26.2,29.87,NNW,338,4.9,11.0,86,0.00,,,0.19,WUHU216HW,2013-03-11 03:15:00,
2013-03-10 22:20:00,29.9,26.2,29.87,NNW,338,3.0,10.0,86,0.00,,,0.19,WUHU216HW,2013-03-11 03:20:00,
2013-03-10 22:25:00,29.9,26.2,29.87,NNW,338,8.4,9.4,86,0.00,,,0.19,WUHU216HW,2013-03-11 03:25:00,
2013-03-10 22:30:00,29.9,26.2,29.87,NNW,338,4.2,9.1,86,0.00,,,0.19,WUHU216HW,2013-03-11 03:30:00,
2013-03-10 22:35:00,29.7,26.0,29.87,NNW,338,6.9,11.3,86,0.00,,,0.19,WUHU216HW,2013-03-11 03:35:00,
2013-03-10 22:40:00,29.5,25.8,29.87,NNW,338,0.8,11.3,86,0.00,,,0.19,WUHU216HW,2013-03-11 03:40:00,
2013-03-10 22:45:00,29.5,25.8,29.87,NNW,338,7.9,8.9,86,0.00,,,0.19,WUHU216HW,2013-03-11 03:45:00,
2013-03-10 22:50:00,29.5,25.8,29.87,NNW,338,5.9,10.2,86,0.00,,,0.19,WUHU216HW,2013-03-11 03:50:00,
2013-03-10 22:55:00,29.5,25.8,29.87,NNW,338,0.4,10.2,86,0.00,,,0.19,WUHU216HW,2013-03-11 03:55:00,
2013-03-10 23:00:00,29.5,25.8,29.87,NNW,338,6.6,9.1,86,0.00,,,0.19,WUHU216HW,2013-03-11 04:00:00,
2013-03-10 23:05:00,29.2,25.5,29.87,NNW,338,4.4,10.2,86,0.00,,,0.19,WUHU216HW,2013-03-11 04:05:00,
2013-03-10 23:10:00,29.2,25.5,29.87,NNW,338,2.4,10.2,86,0.00,,,0.19,WUHU216HW,2013-03-11 04:10:00,
2013-03-10 23:15:00,29.0,25.3,29.87,NNW,338,1.8,8.9,86,0.00,,,0.19,WUHU216HW,2013-03-11 04:15:00,
2013-03-10 23:20:00,29.0,25.3,29.87,NNW,338,1.2,7.0,86,0.00,,,0.19,WUHU216HW,2013-03-11 04:20:00,
2013-03-10 23:25:00,29.0,25.3,29.87,NNW,338,9.1,10.0,86,0.00,,,0.19,WUHU216HW,2013-03-11 04:25:00,
2013-03-10 23:30:00,28.8,25.1,29.87,NNW,338,2.0,10.0,86,0.00,,,0.19,WUHU216HW,2013-03-11 04:30:00,
2013-03-10 23:35:00,28.8,24.8,29.87,NNW,338,5.2,8.9,85,0.00,,,0.19,WUHU216HW,2013-03-11 04:35:00,
2013-03-10 23:40:00,28.6,24.7,29.87,NNW,338,4.7,10.0,85,0.00,,,0.19,WUHU216HW,2013-03-11 04:40:00,
2013-03-10 23:45:00,28.6,24.7,29.87,NNW,338,4.4,10.0,85,0.00,,,0.19,WUHU216HW,2013-03-11 04:45:00,
2013-03-10 23:50:00,28.6,24.7,29.87,NNW,338,5.6,6.7,85,0.00,,,0.19,WUHU216HW,2013-03-11 04:50:00,
2013-03-10 23:55:00,28.6,24.7,29.87,NNW,338,6.6,11.0,85,0.00,,,0.19,WUHU216HW,2013-03-11 04:55:00,